Time,TemperatureF,DewpointF,PressureIn,WindDirection,WindDirectionDegrees,WindSpeedMPH,WindSpeedGustMPH,Humidity,HourlyPrecipIn,Conditions,Clouds,dailyrainin,SolarRadiationWatts/m^2,SoftwareType,DateUTC
2013-02-19 00:11:00,45.0,22.0,-100.00,ENE,77,4.0,8.0,39,0.00,,,0.03,0.000000,,2013-02-19 10:11:00,
2013-02-19 00:21:00,45.0,22.0,-100.00,ENE,77,4.0,8.0,39,0.00,,,0.03,0.000000,,2013-02-19 10:21:00,
2013-02-19 00:31:00,45.0,22.0,-100.00,ENE,77,4.0,8.0,39,0.00,,,0.03,0.000000,,2013-02-19 10:31:00,
2013-02-19 00:41:00,45.0,22.0,-100.00,ENE,77,4.0,8.0,39,0.00,,,0.03,0.000000,,2013-02-19 10:41:00,
2013-02-19 01:11:00,46.0,11.0,-100.00,East,94,7.0,9.0,24,0.00,,,0.03,0.000000,,2013-02-19 11:11:00,
2013-02-19 01:21:00,46.0,11.0,-100.00,East,94,7.0,9.0,24,0.00,,,0.03,0.000000,,2013-02-19 11:21:00,
2013-02-19 01:32:00,46.0,11.0,-100.00,East,94,7.0,9.0,24,0.00,,,0.03,0.000000,,2013-02-19 11:32:00,
2013-02-19 01:42:00,46.0,11.0,-100.00,East,94,7.0,9.0,24,0.00,,,0.03,0.000000,,2013-02-19 11:42:00,
2013-02-19 02:12:00,45.0,5.0,-100.00,East,80,6.0,8.0,19,0.00,,,0.03,0.000000,,2013-02-19 12:12:00,
2013-02-19 02:21:00,45.0,5.0,-100.00,East,80,6.0,8.0,19,0.00,,,0.03,0.000000,,2013-02-19 12:21:00,
2013-02-19 02:32:00,45.0,5.0,-100.00,East,80,6.0,8.0,19,0.00,,,0.03,0.000000,,2013-02-19 12:32:00,
2013-02-19 02:42:00,45.0,5.0,-100.00,East,80,6.0,8.0,19,0.00,,,0.03,0.000000,,2013-02-19 12:42:00,
2013-02-19 03:11:00,44.0,10.0,-100.00,ESE,110,5.0,10.0,25,0.00,,,-99.99,0.000000,,2013-02-19 13:11:00,
2013-02-19 03:22:00,44.0,10.0,-100.00,ESE,110,5.0,10.0,25,0.00,,,-99.99,0.000000,,2013-02-19 13:22:00,
2013-02-19 03:31:00,44.0,10.0,-100.00,ESE,110,5.0,10.0,25,0.00,,,-99.99,0.000000,,2013-02-19 13:31:00,
2013-02-19 03:41:00,44.0,10.0,-100.00,ESE,110,5.0,10.0,25,0.00,,,-99.99,0.000000,,2013-02-19 13:41:00,
2013-02-19 04:11:00,43.0,10.0,-100.00,East,95,4.0,8.0,26,0.00,,,0.02,0.000000,,2013-02-19 14:11:00,
2013-02-19 04:21:00,43.0,10.0,-100.00,East,95,4.0,8.0,26,0.00,,,0.02,0.000000,,2013-02-19 14:21:00,
2013-02-19 04:32:00,43.0,10.0,-100.00,East,95,4.0,8.0,26,0.00,,,0.02,0.000000,,2013-02-19 14:32:00,
2013-02-19 04:41:00,43.0,10.0,-100.00,East,95,4.0,8.0,26,0.00,,,0.02,0.000000,,2013-02-19 14:41:00,
2013-02-19 05:11:00,44.0,15.0,-100.00,ESE,109,7.0,9.0,30,0.00,,,0.00,0.000000,,2013-02-19 15:11:00,
2013-02-19 05:21:00,44.0,15.0,-100.00,ESE,109,7.0,9.0,30,0.00,,,0.00,0.000000,,2013-02-19 15:21:00,
2013-02-19 05:31:00,44.0,15.0,-100.00,ESE,109,7.0,9.0,30,0.00,,,0.00,0.000000,,2013-02-19 15:31:00,
2013-02-19 05:42:00,44.0,15.0,-100.00,ESE,109,7.0,9.0,30,0.00,,,0.00,0.000000,,2013-02-19 15:42:00,
2013-02-19 06:11:00,44.0,3.0,-100.00,ESE,105,5.0,7.0,18,0.00,,,0.00,0.000000,,2013-02-19 16:11:00,
2013-02-19 06:21:00,44.0,3.0,-100.00,ESE,105,5.0,7.0,18,0.00,,,0.00,0.000000,,2013-02-19 16:21:00,
2013-02-19 06:31:00,44.0,3.0,-100.00,ESE,105,5.0,7.0,18,0.00,,,0.00,0.000000,,2013-02-19 16:31:00,
2013-02-19 06:41:00,44.0,3.0,-100.00,ESE,105,5.0,7.0,18,0.00,,,0.00,0.000000,,2013-02-19 16:41:00,
2013-02-19 07:11:00,44.0,1.0,-100.00,East,99,6.0,8.0,16,0.00,,,0.00,0.000000,,2013-02-19 17:11:00,
2013-02-19 07:21:00,44.0,1.0,-100.00,East,99,6.0,8.0,16,0.00,,,0.00,0.000000,,2013-02-19 17:21:00,
2013-02-19 07:32:00,44.0,1.0,-100.00,East,99,6.0,8.0,16,0.00,,,0.00,0.000000,,2013-02-19 17:32:00,
2013-02-19 07:41:00,44.0,1.0,-100.00,East,99,6.0,8.0,16,0.00,,,0.00,0.000000,,2013-02-19 17:41:00,
2013-02-19 08:11:00,45.0,5.0,-100.00,East,88,5.0,8.0,19,0.00,,,0.00,12.000000,,2013-02-19 18:11:00,
2013-02-19 08:21:00,45.0,5.0,-100.00,East,88,5.0,8.0,19,0.00,,,0.00,12.000000,,2013-02-19 18:21:00,
2013-02-19 08:31:00,45.0,5.0,-100.00,East,88,5.0,8.0,19,0.00,,,0.00,12.000000,,2013-02-19 18:31:00,
2013-02-19 08:41:00,45.0,5.0,-100.00,East,88,5.0,8.0,19,0.00,,,0.00,12.000000,,2013-02-19 18:41:00,
2013-02-19 09:11:00,52.0,13.0,-100.00,NE,42,3.0,7.0,21,0.00,,,0.00,170.000000,,2013-02-19 19:11:00,
2013-02-19 09:21:00,52.0,13.0,-100.00,NE,42,3.0,7.0,21,0.00,,,0.00,170.000000,,2013-02-19 19:21:00,
2013-02-19 09:31:00,52.0,13.0,-100.00,NE,42,3.0,7.0,21,0.00,,,0.00,170.000000,,2013-02-19 19:31:00,
2013-02-19 09:41:00,52.0,13.0,-100.00,NE,42,3.0,7.0,21,0.00,,,0.00,170.000000,,2013-02-19 19:41:00,
2013-02-19 10:11:00,54.0,28.0,-100.00,NW,318,5.0,6.0,36,0.00,,,0.00,522.000000,,2013-02-19 20:11:00,
2013-02-19 10:21:00,54.0,28.0,-100.00,NW,318,5.0,6.0,36,0.00,,,0.00,522.000000,,2013-02-19 20:21:00,
2013-02-19 10:32:00,54.0,28.0,-100.00,NW,318,5.0,6.0,36,0.00,,,0.00,522.000000,,2013-02-19 20:32:00,
2013-02-19 10:41:00,54.0,28.0,-100.00,NW,318,5.0,6.0,36,0.00,,,0.00,522.000000,,2013-02-19 20:41:00,
2013-02-19 11:11:00,55.0,43.0,-100.00,WNW,301,5.0,9.0,64,0.00,,,0.00,716.000000,,2013-02-19 21:11:00,
2013-02-19 11:21:00,55.0,43.0,-100.00,WNW,301,5.0,9.0,64,0.00,,,0.00,716.000000,,2013-02-19 21:21:00,
2013-02-19 11:31:00,55.0,43.0,-100.00,WNW,301,5.0,9.0,64,0.00,,,0.00,716.000000,,2013-02-19 21:31:00,
2013-02-19 11:42:00,55.0,43.0,-100.00,WNW,301,5.0,9.0,64,0.00,,,0.00,716.000000,,2013-02-19 21:42:00,
2013-02-19 12:11:00,54.0,44.0,-100.00,NW,304,6.0,12.0,68,0.00,,,0.00,852.000000,,2013-02-19 22:11:00,
2013-02-19 12:21:00,54.0,44.0,-100.00,NW,304,6.0,12.0,68,0.00,,,0.00,852.000000,,2013-02-19 22:21:00,
2013-02-19 12:32:00,54.0,44.0,-100.00,NW,304,6.0,12.0,68,0.00,,,0.00,852.000000,,2013-02-19 22:32:00,
2013-02-19 12:41:00,54.0,44.0,-100.00,NW,304,6.0,12.0,68,0.00,,,0.00,852.000000,,2013-02-19 22:41:00,
2013-02-19 13:11:00,56.0,47.0,-100.00,NW,310,6.0,12.0,72,0.00,,,0.00,941.000000,,2013-02-19 23:11:00,
2013-02-19 13:21:00,56.0,47.0,-100.00,NW,310,6.0,12.0,72,0.00,,,0.00,941.000000,,2013-02-19 23:21:00,
2013-02-19 13:31:00,56.0,47.0,-100.00,NW,310,6.0,12.0,72,0.00,,,0.00,941.000000,,2013-02-19 23:31:00,
2013-02-19 13:41:00,56.0,47.0,-100.00,NW,310,6.0,12.0,72,0.00,,,0.00,941.000000,,2013-02-19 23:41:00,
2013-02-19 14:11:00,53.0,47.0,-100.00,NW,309,6.0,12.0,81,0.00,,,0.00,586.000000,,2013-02-20 00:11:00,
2013-02-19 14:21:00,53.0,47.0,-100.00,NW,309,6.0,12.0,81,0.00,,,0.00,586.000000,,2013-02-20 00:21:00,
2013-02-19 14:31:00,53.0,47.0,-100.00,NW,309,6.0,12.0,81,0.00,,,0.00,586.000000,,2013-02-20 00:31:00,
2013-02-19 14:41:00,53.0,47.0,-100.00,NW,309,6.0,12.0,81,0.00,,,0.00,586.000000,,2013-02-20 00:41:00,
2013-02-19 15:11:00,53.0,48.0,-100.00,WNW,293,6.0,12.0,83,0.00,,,0.00,242.000000,,2013-02-20 01:11:00,
2013-02-19 15:21:00,53.0,48.0,-100.00,WNW,293,6.0,12.0,83,0.00,,,0.00,242.000000,,2013-02-20 01:21:00,
2013-02-19 15:31:00,53.0,48.0,-100.00,WNW,293,6.0,12.0,83,0.00,,,0.00,242.000000,,2013-02-20 01:31:00,
2013-02-19 15:41:00,53.0,48.0,-100.00,WNW,293,6.0,12.0,83,0.00,,,0.00,242.000000,,2013-02-20 01:41:00,
2013-02-19 16:11:00,50.0,47.0,-100.00,NNW,334,5.0,10.0,91,0.00,,,0.00,266.000000,,2013-02-20 02:11:00,
2013-02-19 16:21:00,50.0,47.0,-100.00,NNW,334,5.0,10.0,91,0.00,,,0.00,266.000000,,2013-02-20 02:21:00,
2013-02-19 16:31:00,50.0,47.0,-100.00,NNW,334,5.0,10.0,91,0.00,,,0.00,266.000000,,2013-02-20 02:31:00,
2013-02-19 16:41:00,50.0,47.0,-100.00,NNW,334,5.0,10.0,91,0.00,,,0.00,266.000000,,2013-02-20 02:41:00,
2013-02-19 17:12:00,50.0,47.0,-100.00,NNW,335,3.0,8.0,91,0.00,,,0.00,159.000000,,2013-02-20 03:12:00,
2013-02-19 17:21:00,50.0,47.0,-100.00,NNW,335,3.0,8.0,91,0.00,,,0.00,159.000000,,2013-02-20 03:21:00,
2013-02-19 17:32:00,50.0,47.0,-100.00,NNW,335,3.0,8.0,91,0.00,,,0.00,159.000000,,2013-02-20 03:32:00,
2013-02-19 17:41:00,50.0,47.0,-100.00,NNW,335,3.0,8.0,91,0.00,,,0.00,159.000000,,2013-02-20 03:41:00,
2013-02-19 18:11:00,50.0,46.0,-100.00,North,355,4.0,10.0,87,0.00,,,0.00,98.000000,,2013-02-20 04:11:00,
2013-02-19 18:21:00,50.0,46.0,-100.00,North,355,4.0,10.0,87,0.00,,,0.00,98.000000,,2013-02-20 04:21:00,
2013-02-19 18:31:00,50.0,46.0,-100.00,North,355,4.0,10.0,87,0.00,,,0.00,98.000000,,2013-02-20 04:31:00,
2013-02-19 18:41:00,50.0,46.0,-100.00,North,355,4.0,10.0,87,0.00,,,0.00,98.000000,,2013-02-20 04:41:00,
2013-02-19 19:12:00,46.0,40.0,-100.00,SSE,148,4.0,10.0,78,0.00,,,0.00,24.000000,,2013-02-20 05:12:00,
2013-02-19 19:22:00,46.0,40.0,-100.00,SSE,148,4.0,10.0,78,0.00,,,0.00,24.000000,,2013-02-20 05:22:00,
2013-02-19 19:32:00,46.0,40.0,-100.00,SSE,148,4.0,10.0,78,0.00,,,0.00,24.000000,,2013-02-20 05:32:00,
2013-02-19 19:42:00,46.0,40.0,-100.00,SSE,148,4.0,10.0,78,0.00,,,0.00,24.000000,,2013-02-20 05:42:00,
2013-02-19 20:11:00,45.0,29.0,-100.00,ENE,76,5.0,6.0,54,0.00,,,0.00,0.000000,,2013-02-20 06:11:00,
2013-02-19 20:21:00,45.0,29.0,-100.00,ENE,76,5.0,6.0,54,0.00,,,0.00,0.000000,,2013-02-20 06:21:00,
2013-02-19 20:31:00,45.0,29.0,-100.00,ENE,76,5.0,6.0,54,0.00,,,0.00,0.000000,,2013-02-20 06:31:00,
2013-02-19 20:42:00,45.0,29.0,-100.00,ENE,76,5.0,6.0,54,0.00,,,0.00,0.000000,,2013-02-20 06:42:00,
2013-02-19 21:11:00,44.0,32.0,-100.00,SE,138,4.0,10.0,62,0.00,,,0.00,0.000000,,2013-02-20 07:11:00,
2013-02-19 21:21:00,44.0,32.0,-100.00,SE,138,4.0,10.0,62,0.00,,,0.00,0.000000,,2013-02-20 07:21:00,
2013-02-19 21:31:00,44.0,32.0,-100.00,SE,138,4.0,10.0,62,0.00,,,0.00,0.000000,,2013-02-20 07:31:00,
2013-02-19 21:41:00,44.0,32.0,-100.00,SE,138,4.0,10.0,62,0.00,,,0.00,0.000000,,2013-02-20 07:41:00,
2013-02-19 22:11:00,45.0,36.0,-100.00,East,84,5.0,11.0,70,0.00,,,-99.99,0.000000,,2013-02-20 08:11:00,
2013-02-19 22:21:00,45.0,36.0,-100.00,East,84,5.0,11.0,70,0.00,,,-99.99,0.000000,,2013-02-20 08:21:00,
2013-02-19 22:31:00,45.0,36.0,-100.00,East,84,5.0,11.0,70,0.00,,,-99.99,0.000000,,2013-02-20 08:31:00,
2013-02-19 22:41:00,45.0,36.0,-100.00,East,84,5.0,11.0,70,0.00,,,-99.99,0.000000,,2013-02-20 08:41:00,
2013-02-19 23:11:00,46.0,40.0,-100.00,North,6,6.0,16.0,79,0.00,,,0.00,0.000000,,2013-02-20 09:11:00,
2013-02-19 23:21:00,46.0,40.0,-100.00,North,6,6.0,16.0,79,0.00,,,0.00,0.000000,,2013-02-20 09:21:00,
2013-02-19 23:31:00,46.0,40.0,-100.00,North,6,6.0,16.0,79,0.00,,,0.00,0.000000,,2013-02-20 09:31:00,
2013-02-19 23:41:00,46.0,40.0,-100.00,North,6,6.0,16.0,79,0.00,,,0.00,0.000000,,2013-02-20 09:41:00,